Location: Ladrillo (historical)
(32.8195°N, 117.2231°W)
Time: 11:55:14
(UTC+00:00)

CZ-3 R/B - Pass Details

Date: 26 May 2022
Orbit: 424 x 10170 km, 28.3° (Epoch: 30 June)

Event Time Altitude Azimuth Distance (km) Brightness Sun altitude
Rises 11:44:54 0° 269° (W) 13,977 6.9 -11.5°
Reaches altitude 10° 12:00:48 10° 270° (W) 11,307 6.4 -8.7°
Maximum altitude 12:36:21 72° 193° (SSW) 2,558 3.6 -2.2°
Drops below altitude 10° 12:44:40 10° 110° (ESE) 3,235 5.0 -0.6°
Sets 12:46:26 0° 108° (ESE) 3,804 5.4 -0.3°
